DLH4HF EDDL-EDDM

Flight info

Callsign DLH4HF
Flight time 1h 1m
Altitude 29000
Route DODEN1T/23L DODEN Y853 BOMBI T104 HAREM/N0421F270 T104 ROKIL ROKIL1B
Aircraft A321/M-SDE3FGHIRWY/LB1

Departure

Time 2026-05-04 19:54
Airport Düsseldorf Airport (EDDL)

Arrival

Time 2026-05-04 20:55
Airport Munich Airport (EDDM)
Time Latitude Longitude Altitude Speed Heading
2026-05-04 17:59 51.27995 6.76172 154 ft 0 kts 119°
2026-05-04 19:21 51.27997 6.76168 154 ft 2 kts 120°
2026-05-04 19:22 51.28006 6.76148 154 ft 2 kts 137°
2026-05-04 19:22 51.28018 6.76133 154 ft 2 kts 150°
2026-05-04 19:22 51.28032 6.76123 154 ft 2 kts 163°
2026-05-04 19:22 51.28047 6.76118 154 ft 2 kts 176°
2026-05-04 19:23 51.28063 6.76119 154 ft 2 kts 189°
2026-05-04 19:23 51.28077 6.76125 154 ft 2 kts 203°
2026-05-04 19:23 51.28091 6.76137 154 ft 2 kts 217°
2026-05-04 19:23 51.28102 6.76153 154 ft 2 kts 230°
2026-05-04 19:24 51.28107 6.76162 154 ft 0 kts 235°
2026-05-04 19:33 51.28090 6.76123 154 ft 5 kts 236°
2026-05-04 19:33 51.28081 6.76061 154 ft 4 kts 286°
2026-05-04 19:33 51.28082 6.76056 154 ft 0 kts 291°
2026-05-04 19:35 51.28100 6.76027 154 ft 4 kts 333°
2026-05-04 19:35 51.28126 6.76028 154 ft 3 kts 29°
2026-05-04 19:36 51.28130 6.76032 154 ft 0 kts 33°
2026-05-04 19:36 51.28148 6.76061 154 ft 9 kts 50°
2026-05-04 19:37 51.28206 6.76182 154 ft 15 kts 51°
2026-05-04 19:37 51.28279 6.76340 154 ft 17 kts 56°
2026-05-04 19:37 51.28355 6.76497 154 ft 17 kts 53°
2026-05-04 19:37 51.28425 6.76646 154 ft 15 kts 53°
2026-05-04 19:38 51.28486 6.76772 154 ft 13 kts 53°
2026-05-04 19:38 51.28542 6.76890 154 ft 13 kts 53°
2026-05-04 19:38 51.28600 6.77010 154 ft 13 kts 53°
2026-05-04 19:38 51.28660 6.77136 154 ft 14 kts 53°
2026-05-04 19:39 51.28719 6.77260 154 ft 13 kts 53°
2026-05-04 19:39 51.28779 6.77386 154 ft 14 kts 54°
2026-05-04 19:39 51.28841 6.77515 154 ft 14 kts 50°
2026-05-04 19:39 51.28904 6.77648 154 ft 15 kts 53°
2026-05-04 19:40 51.28968 6.77784 154 ft 15 kts 52°
2026-05-04 19:40 51.29029 6.77910 154 ft 13 kts 52°
2026-05-04 19:40 51.29086 6.78030 154 ft 13 kts 52°
2026-05-04 19:40 51.29141 6.78144 154 ft 13 kts 53°
2026-05-04 19:41 51.29198 6.78265 154 ft 13 kts 52°
2026-05-04 19:41 51.29254 6.78383 154 ft 10 kts 52°
2026-05-04 19:41 51.29277 6.78430 154 ft 0 kts 53°
2026-05-04 19:41 51.29278 6.78432 154 ft 1 kts 53°
2026-05-04 19:42 51.29290 6.78459 154 ft 4 kts 54°
2026-05-04 19:42 51.29308 6.78497 154 ft 0 kts 52°
2026-05-04 19:42 51.29309 6.78500 154 ft 1 kts 52°
2026-05-04 19:42 51.29314 6.78510 154 ft 0 kts 52°
2026-05-04 19:44 51.29315 6.78512 154 ft 2 kts 52°
2026-05-04 19:45 51.29323 6.78527 154 ft 0 kts 50°
2026-05-04 19:45 51.29323 6.78528 154 ft 0 kts 50°
2026-05-04 19:45 51.29364 6.78569 154 ft 7 kts 19°
2026-05-04 19:45 51.29386 6.78574 154 ft 0 kts 359°
2026-05-04 19:48 51.29409 6.78572 154 ft 8 kts 356°
2026-05-04 19:49 51.29426 6.78570 154 ft 0 kts 355°
2026-05-04 19:51 51.29428 6.78570 154 ft 2 kts 355°
2026-05-04 19:51 51.29492 6.78551 154 ft 10 kts 331°
2026-05-04 19:51 51.29506 6.78448 154 ft 10 kts 241°
2026-05-04 19:51 51.29483 6.78393 154 ft 0 kts 232°
2026-05-04 19:52 51.29480 6.78388 154 ft 0 kts 233°
2026-05-04 19:53 51.29480 6.78387 154 ft 0 kts 233°
2026-05-04 19:53 51.29478 6.78385 154 ft 0 kts 233°
2026-05-04 19:53 51.29477 6.78381 154 ft 4 kts 233°
2026-05-04 19:54 51.29329 6.78073 154 ft 70 kts 231°
2026-05-04 19:54 51.28891 6.77153 154 ft 133 kts 233°
2026-05-04 19:54 51.28225 6.75744 338 ft 168 kts 232°
2026-05-04 19:54 51.27534 6.74244 1012 ft 166 kts 233°
2026-05-04 19:55 51.26825 6.72678 1382 ft 185 kts 232°
2026-05-04 19:55 51.26041 6.71012 2063 ft 186 kts 232°
2026-05-04 19:55 51.25246 6.69320 2555 ft 197 kts 231°
2026-05-04 19:55 51.24387 6.67495 2934 ft 213 kts 232°
2026-05-04 19:56 51.23429 6.65479 3238 ft 235 kts 228°
2026-05-04 19:56 51.22076 6.63881 3598 ft 250 kts 199°
2026-05-04 19:56 51.20299 6.63603 4233 ft 257 kts 174°
2026-05-04 19:56 51.18489 6.63964 5071 ft 257 kts 175°
2026-05-04 19:57 51.16697 6.64267 5829 ft 260 kts 174°
2026-05-04 19:57 51.14949 6.65148 6543 ft 265 kts 149°
2026-05-04 19:57 51.13662 6.67259 7298 ft 272 kts 123°
2026-05-04 19:57 51.13074 6.70152 7995 ft 282 kts 97°
2026-05-04 19:58 51.13153 6.73296 8687 ft 287 kts 89°
2026-05-04 19:58 51.13300 6.76494 9331 ft 291 kts 90°
2026-05-04 19:58 51.13441 6.79780 9812 ft 295 kts 90°
2026-05-04 19:58 51.13572 6.83131 10215 ft 301 kts 89°
2026-05-04 19:59 51.13699 6.86541 10513 ft 313 kts 89°
2026-05-04 19:59 51.13831 6.90092 10791 ft 327 kts 90°
2026-05-04 19:59 51.13969 6.93885 11037 ft 340 kts 90°
2026-05-04 19:59 51.14110 6.97739 11301 ft 352 kts 90°
2026-05-04 20:00 51.14253 7.01679 11817 ft 357 kts 89°
2026-05-04 20:00 51.14395 7.05668 12455 ft 359 kts 89°
2026-05-04 20:00 51.14585 7.11004 13276 ft 362 kts 89°
2026-05-04 20:00 51.14679 7.13683 13676 ft 364 kts 89°
2026-05-04 20:01 51.14820 7.17725 14254 ft 366 kts 89°
2026-05-04 20:01 51.14961 7.21812 14788 ft 370 kts 89°
2026-05-04 20:01 51.15101 7.25974 15314 ft 374 kts 89°
2026-05-04 20:01 51.15242 7.30178 15840 ft 377 kts 89°
2026-05-04 20:02 51.15381 7.34370 16351 ft 380 kts 89°
2026-05-04 20:02 51.15518 7.38538 16852 ft 383 kts 89°
2026-05-04 20:02 51.15336 7.42830 17294 ft 382 kts 106°
2026-05-04 20:02 51.14239 7.46708 17778 ft 379 kts 127°
2026-05-04 20:03 51.12464 7.49800 18292 ft 377 kts 138°
2026-05-04 20:03 51.10505 7.52725 18777 ft 380 kts 139°
2026-05-04 20:03 51.08568 7.55618 19250 ft 382 kts 139°
2026-05-04 20:03 51.06595 7.58590 19716 ft 385 kts 139°
2026-05-04 20:04 51.04641 7.61545 20140 ft 389 kts 139°
2026-05-04 20:04 51.02672 7.64535 20569 ft 392 kts 139°
2026-05-04 20:04 51.00684 7.67557 21002 ft 394 kts 139°
2026-05-04 20:04 50.98631 7.70623 21437 ft 396 kts 141°
2026-05-04 20:05 50.96446 7.73505 21854 ft 397 kts 146°
2026-05-04 20:05 50.94148 7.76116 22259 ft 397 kts 149°
2026-05-04 20:05 50.91791 7.78476 22670 ft 399 kts 151°
2026-05-04 20:05 50.89416 7.80813 23057 ft 401 kts 151°
2026-05-04 20:06 50.87022 7.83163 23445 ft 403 kts 151°
2026-05-04 20:06 50.84618 7.85522 23819 ft 405 kts 152°
2026-05-04 20:06 50.82197 7.87900 24198 ft 407 kts 151°
2026-05-04 20:06 50.79757 7.90291 24569 ft 410 kts 152°
2026-05-04 20:07 50.77300 7.92697 24904 ft 412 kts 152°
2026-05-04 20:07 50.74830 7.95111 24971 ft 412 kts 152°
2026-05-04 20:07 50.72376 7.97509 24977 ft 412 kts 152°
2026-05-04 20:07 50.69903 7.99919 24980 ft 413 kts 152°
2026-05-04 20:08 50.67461 8.02300 24978 ft 412 kts 151°
2026-05-04 20:08 50.64997 8.04700 24980 ft 412 kts 152°
2026-05-04 20:08 50.62544 8.07106 24978 ft 412 kts 150°
2026-05-04 20:08 50.60156 8.09677 24998 ft 415 kts 147°
2026-05-04 20:09 50.57831 8.12494 25279 ft 420 kts 144°
2026-05-04 20:09 50.55565 8.15470 25712 ft 420 kts 144°
2026-05-04 20:09 50.53319 8.18416 26078 ft 421 kts 144°
2026-05-04 20:09 50.51055 8.21382 26381 ft 422 kts 144°
2026-05-04 20:10 50.48769 8.24371 26572 ft 424 kts 144°
2026-05-04 20:10 50.46477 8.27361 26737 ft 425 kts 144°
2026-05-04 20:10 50.44161 8.30382 26891 ft 427 kts 144°
2026-05-04 20:10 50.41835 8.33411 27140 ft 429 kts 144°
2026-05-04 20:11 50.39497 8.36453 27455 ft 430 kts 144°
2026-05-04 20:11 50.37153 8.39501 27738 ft 432 kts 144°
2026-05-04 20:11 50.34808 8.42543 28031 ft 434 kts 144°
2026-05-04 20:11 50.32451 8.45598 28298 ft 436 kts 144°
2026-05-04 20:12 50.30079 8.48671 28575 ft 437 kts 144°
2026-05-04 20:12 50.27708 8.51738 28854 ft 438 kts 144°
2026-05-04 20:12 50.25324 8.54815 28971 ft 439 kts 144°
2026-05-04 20:13 50.20573 8.60935 28974 ft 438 kts 144°
2026-05-04 20:13 50.15805 8.67064 28970 ft 438 kts 145°
2026-05-04 20:14 50.11030 8.73182 28965 ft 438 kts 145°
2026-05-04 20:14 50.06214 8.79350 28961 ft 439 kts 144°
2026-05-04 20:15 50.02422 8.84649 28957 ft 440 kts 142°
2026-05-04 20:15 49.98745 8.89851 28955 ft 440 kts 142°
2026-05-04 20:16 49.94166 8.96309 28956 ft 440 kts 142°
2026-05-04 20:16 49.89607 9.02723 28958 ft 440 kts 142°
2026-05-04 20:17 49.84991 9.09200 28967 ft 448 kts 142°
2026-05-04 20:17 49.80247 9.15837 28969 ft 459 kts 141°
2026-05-04 20:18 49.75441 9.22553 28968 ft 461 kts 141°
2026-05-04 20:18 49.70652 9.29224 28966 ft 461 kts 141°
2026-05-04 20:19 49.65802 9.35956 28969 ft 461 kts 141°
2026-05-04 20:19 49.61104 9.42862 28966 ft 464 kts 137°
2026-05-04 20:20 49.56790 9.50318 28967 ft 465 kts 134°
2026-05-04 20:20 49.52507 9.57830 28968 ft 466 kts 134°
2026-05-04 20:21 49.48194 9.65371 28969 ft 466 kts 135°
2026-05-04 20:21 49.41725 9.76639 28979 ft 465 kts 135°
2026-05-04 20:22 49.37418 9.84114 28986 ft 465 kts 135°
2026-05-04 20:22 49.33097 9.91578 28988 ft 465 kts 135°
2026-05-04 20:23 49.28787 9.98995 28991 ft 465 kts 135°
2026-05-04 20:23 49.24409 10.06511 28991 ft 465 kts 135°
2026-05-04 20:24 49.20070 10.13937 28991 ft 465 kts 135°
2026-05-04 20:24 49.15718 10.21374 28990 ft 465 kts 134°
2026-05-04 20:25 49.11328 10.28672 28983 ft 465 kts 136°
2026-05-04 20:25 49.06824 10.35865 28979 ft 465 kts 136°
2026-05-04 20:26 49.02272 10.43144 28977 ft 465 kts 136°
2026-05-04 20:26 48.97743 10.50379 28974 ft 466 kts 136°
2026-05-04 20:27 48.93208 10.57601 28971 ft 466 kts 135°
2026-05-04 20:27 48.88700 10.64771 28972 ft 465 kts 135°
2026-05-04 20:28 48.84195 10.71908 28970 ft 465 kts 136°
2026-05-04 20:28 48.79665 10.79063 28969 ft 465 kts 136°
2026-05-04 20:29 48.75156 10.86137 28960 ft 465 kts 136°
2026-05-04 20:29 48.70595 10.93271 28963 ft 466 kts 136°
2026-05-04 20:30 48.66121 11.00252 28686 ft 448 kts 136°
2026-05-04 20:30 48.63924 11.03671 27597 ft 454 kts 136°
2026-05-04 20:30 48.61712 11.07104 26772 ft 452 kts 136°
2026-05-04 20:31 48.59532 11.10487 26163 ft 439 kts 136°
2026-05-04 20:31 48.57409 11.13717 25481 ft 421 kts 140°
2026-05-04 20:31 48.54966 11.16011 24815 ft 397 kts 163°
2026-05-04 20:31 48.52321 11.16563 24246 ft 373 kts 186°
2026-05-04 20:32 48.49867 11.15607 23502 ft 360 kts 206°
2026-05-04 20:32 48.47810 11.13490 22588 ft 354 kts 225°
2026-05-04 20:32 48.46353 11.10517 21722 ft 349 kts 243°
2026-05-04 20:32 48.45622 11.07059 20892 ft 346 kts 261°
2026-05-04 20:33 48.45662 11.03458 20079 ft 344 kts 279°
2026-05-04 20:33 48.46464 11.00079 19307 ft 342 kts 297°
2026-05-04 20:33 48.47911 10.97252 18578 ft 339 kts 311°
2026-05-04 20:33 48.49573 10.94693 17890 ft 334 kts 313°
2026-05-04 20:34 48.51196 10.92226 17240 ft 327 kts 312°
2026-05-04 20:34 48.52780 10.89799 16622 ft 321 kts 312°
2026-05-04 20:34 48.54330 10.87404 15998 ft 316 kts 312°
2026-05-04 20:34 48.55944 10.85157 15382 ft 314 kts 323°
2026-05-04 20:35 48.57892 10.83721 14773 ft 313 kts 341°
2026-05-04 20:35 48.60050 10.83235 14161 ft 311 kts 360°
2026-05-04 20:35 48.62184 10.83727 13554 ft 309 kts 18°
2026-05-04 20:35 48.64109 10.85129 12969 ft 305 kts 36°
2026-05-04 20:36 48.65655 10.87277 12408 ft 300 kts 53°
2026-05-04 20:36 48.66708 10.89949 11840 ft 293 kts 70°
2026-05-04 20:36 48.67217 10.92910 11267 ft 285 kts 87°
2026-05-04 20:36 48.67161 10.95860 10699 ft 278 kts 107°
2026-05-04 20:37 48.66455 10.98526 10149 ft 270 kts 122°
2026-05-04 20:37 48.65413 11.00872 9639 ft 263 kts 130°
2026-05-04 20:37 48.64241 11.02999 9143 ft 258 kts 134°
2026-05-04 20:37 48.63033 11.04989 8572 ft 256 kts 135°
2026-05-04 20:38 48.61808 11.06926 8004 ft 254 kts 135°
2026-05-04 20:38 48.60574 11.08850 7449 ft 253 kts 135°
2026-05-04 20:38 48.59364 11.10730 7080 ft 243 kts 135°
2026-05-04 20:38 48.58199 11.12458 7007 ft 221 kts 140°
2026-05-04 20:39 48.57048 11.13852 6982 ft 198 kts 146°
2026-05-04 20:39 48.55966 11.14969 6960 ft 176 kts 147°
2026-05-04 20:39 48.54998 11.15953 6851 ft 162 kts 147°
2026-05-04 20:39 48.53966 11.17019 6896 ft 187 kts 147°
2026-05-04 20:40 48.52894 11.18160 7078 ft 189 kts 138°
2026-05-04 20:40 48.52074 11.19776 6808 ft 199 kts 115°
2026-05-04 20:40 48.51717 11.21856 6248 ft 213 kts 92°
2026-05-04 20:40 48.51897 11.24142 5680 ft 227 kts 78°
2026-05-04 20:41 48.52258 11.26556 5217 ft 244 kts 76°
2026-05-04 20:41 48.52646 11.29093 5033 ft 248 kts 77°
2026-05-04 20:41 48.52836 11.31667 5010 ft 240 kts 87°
2026-05-04 20:41 48.52859 11.34208 5010 ft 239 kts 89°
2026-05-04 20:42 48.52866 11.36720 5012 ft 239 kts 89°
2026-05-04 20:42 48.52885 11.39249 5007 ft 239 kts 88°
2026-05-04 20:42 48.52915 11.41767 5011 ft 239 kts 88°
2026-05-04 20:42 48.52953 11.44312 5019 ft 240 kts 87°
2026-05-04 20:43 48.52997 11.46845 5005 ft 240 kts 87°
2026-05-04 20:43 48.53043 11.49384 5005 ft 239 kts 87°
2026-05-04 20:43 48.53090 11.51926 5008 ft 238 kts 87°
2026-05-04 20:43 48.53137 11.54468 5015 ft 238 kts 87°
2026-05-04 20:44 48.53184 11.56967 5017 ft 238 kts 87°
2026-05-04 20:44 48.53231 11.59487 5017 ft 238 kts 87°
2026-05-04 20:44 48.53277 11.61998 5000 ft 237 kts 87°
2026-05-04 20:44 48.53322 11.64491 5008 ft 236 kts 87°
2026-05-04 20:45 48.53367 11.66989 5019 ft 237 kts 88°
2026-05-04 20:45 48.53411 11.69505 5006 ft 235 kts 88°
2026-05-04 20:45 48.53453 11.71947 5096 ft 229 kts 88°
2026-05-04 20:45 48.53495 11.74359 5064 ft 228 kts 88°
2026-05-04 20:46 48.53534 11.76757 5026 ft 227 kts 88°
2026-05-04 20:46 48.53575 11.79151 5014 ft 227 kts 88°
2026-05-04 20:46 48.53614 11.81559 5004 ft 228 kts 88°
2026-05-04 20:46 48.53654 11.83950 5001 ft 226 kts 88°
2026-05-04 20:47 48.53690 11.86339 4998 ft 224 kts 87°
2026-05-04 20:47 48.53730 11.88715 4993 ft 220 kts 88°
2026-05-04 20:47 48.53709 11.91012 4983 ft 215 kts 97°
2026-05-04 20:47 48.52961 11.92941 4966 ft 218 kts 140°
2026-05-04 20:48 48.51611 11.94055 5008 ft 219 kts 152°
2026-05-04 20:48 48.50251 11.95131 5000 ft 218 kts 150°
2026-05-04 20:48 48.48915 11.96264 4998 ft 218 kts 149°
2026-05-04 20:48 48.47585 11.97435 4998 ft 218 kts 148°
2026-05-04 20:49 48.46274 11.98618 5000 ft 218 kts 148°
2026-05-04 20:49 48.44948 11.99831 4997 ft 219 kts 148°
2026-05-04 20:49 48.43625 12.01042 4993 ft 220 kts 148°
2026-05-04 20:49 48.42299 12.02258 4996 ft 221 kts 149°
2026-05-04 20:50 48.40969 12.03476 4997 ft 220 kts 148°
2026-05-04 20:50 48.39640 12.04672 4995 ft 220 kts 152°
2026-05-04 20:50 48.38128 12.05074 4982 ft 220 kts 187°
2026-05-04 20:50 48.36781 12.04144 5002 ft 204 kts 221°
2026-05-04 20:51 48.36119 12.02436 4965 ft 175 kts 255°
2026-05-04 20:51 48.35939 12.00716 4949 ft 160 kts 267°
2026-05-04 20:51 48.35868 11.99049 4919 ft 154 kts 268°
2026-05-04 20:51 48.35787 11.97452 4591 ft 150 kts 267°
2026-05-04 20:52 48.35752 11.96857 4415 ft 150 kts 264°
2026-05-04 20:52 48.35640 11.95279 3938 ft 152 kts 265°
2026-05-04 20:52 48.35518 11.93702 3473 ft 152 kts 265°
2026-05-04 20:52 48.35392 11.92113 3034 ft 150 kts 264°
2026-05-04 20:53 48.35267 11.90549 2777 ft 149 kts 265°
2026-05-04 20:53 48.35198 11.89683 2671 ft 148 kts 265°
2026-05-04 20:53 48.35144 11.88993 2585 ft 148 kts 265°
2026-05-04 20:53 48.35061 11.87964 2458 ft 147 kts 266°
2026-05-04 20:54 48.34940 11.86433 2257 ft 145 kts 266°
2026-05-04 20:54 48.34814 11.84913 2067 ft 144 kts 264°
2026-05-04 20:54 48.34685 11.83399 1872 ft 144 kts 269°
2026-05-04 20:54 48.34580 11.81891 1714 ft 143 kts 264°
2026-05-04 20:55 48.34469 11.80374 1527 ft 143 kts 266°
2026-05-04 20:55 48.34367 11.78958 1479 ft 118 kts 261°
2026-05-04 20:55 48.34287 11.77979 1483 ft 66 kts 264°
2026-05-04 20:55 48.34255 11.77533 1484 ft 24 kts 264°
2026-05-04 20:56 48.34260 11.77281 1485 ft 22 kts 285°
2026-05-04 20:56 48.34313 11.77069 1485 ft 17 kts 292°
2026-05-04 20:56 48.34360 11.76912 1485 ft 15 kts 288°
2026-05-04 20:56 48.34399 11.76768 1486 ft 14 kts 295°
2026-05-04 20:57 48.34473 11.76700 1485 ft 12 kts 354°
2026-05-04 20:57 48.34554 11.76700 1485 ft 9 kts 27°
2026-05-04 20:57 48.34577 11.76791 1485 ft 9 kts 84°
2026-05-04 20:57 48.34584 11.76895 1485 ft 9 kts 83°
2026-05-04 20:58 48.34598 11.77069 1484 ft 22 kts 83°
2026-05-04 20:58 48.34616 11.77294 1484 ft 20 kts 84°
2026-05-04 20:58 48.34631 11.77503 1483 ft 19 kts 83°
2026-05-04 20:58 48.34647 11.77699 1482 ft 18 kts 84°
2026-05-04 20:59 48.34661 11.77884 1482 ft 16 kts 83°
2026-05-04 20:59 48.34674 11.78057 1482 ft 15 kts 83°
2026-05-04 20:59 48.34690 11.78258 1481 ft 25 kts 83°
2026-05-04 20:59 48.34711 11.78544 1480 ft 26 kts 84°
2026-05-04 21:00 48.34732 11.78797 1480 ft 19 kts 83°
2026-05-04 21:00 48.34747 11.78992 1479 ft 17 kts 83°
2026-05-04 21:00 48.34761 11.79176 1478 ft 17 kts 82°
2026-05-04 21:00 48.34774 11.79351 1477 ft 16 kts 84°
2026-05-04 21:01 48.34788 11.79505 1476 ft 11 kts 74°
2026-05-04 21:01 48.34842 11.79559 1476 ft 10 kts 356°
2026-05-04 21:01 48.34912 11.79547 1476 ft 9 kts 354°
2026-05-04 21:01 48.34983 11.79565 1476 ft 11 kts 29°
2026-05-04 21:02 48.35067 11.79589 1475 ft 13 kts 352°
2026-05-04 21:02 48.35164 11.79573 1475 ft 14 kts 355°
2026-05-04 21:02 48.35267 11.79554 1474 ft 15 kts 353°
2026-05-04 21:02 48.35329 11.79543 1474 ft 8 kts 354°
2026-05-04 21:03 48.35406 11.79529 1474 ft 12 kts 353°
2026-05-04 21:03 48.35480 11.79564 1473 ft 8 kts 28°
2026-05-04 21:03 48.35538 11.79575 1473 ft 8 kts 354°
2026-05-04 21:03 48.35573 11.79610 1472 ft 6 kts 79°
2026-05-04 21:04 48.35579 11.79685 1472 ft 7 kts 84°
2026-05-04 21:04 48.35582 11.79727 1471 ft 0 kts 83°